| time (UTC) | temp F | wind direction | speed MPH | gust MPH | rain 1hr in | rain 24hr in | rain mn in | humidity % | barometer mb |
| 20260506181558 | 60 | 121 | 1.0 | 2.0 | 0.04 | 0.51 | 0.48 | 96 | 1004.9 |
| 20260506181510 | 60 | 121 | 0.0 | 2.0 | 0.04 | 0.51 | 0.48 | 96 | 1005.5 |
| 20260506180104 | 59 | 0 | 0.0 | 0.0 | 0.04 | 0.50 | 0.47 | 96 | 1005.1 |
| 20260506180020 | 59 | 296 | 0.0 | 0.0 | 0.04 | 0.50 | 0.47 | 96 | 1005.6 |
| 20260506174540 | 59 | 0 | 0.0 | 0.0 | 0.06 | 0.50 | 0.47 | 96 | 1005.2 |
| 20260506174511 | 59 | 296 | 0.0 | 0.0 | 0.05 | 0.49 | 0.46 | 96 | 1005.7 |
| 20260506173052 | 58 | 0 | 0.0 | 0.0 | 0.08 | 0.48 | 0.45 | 96 | 1005.1 |
| 20260506173010 | 58 | 297 | 0.0 | 0.0 | 0.09 | 0.48 | 0.45 | 96 | 1005.6 |
| 20260506171539 | 58 | 0 | 0.0 | 0.0 | 0.11 | 0.47 | 0.44 | 96 | 1005.3 |
| 20260506171525 | 58 | 296 | 0.0 | 0.0 | 0.12 | 0.47 | 0.44 | 96 | 1005.7 |
| 20260506170039 | 57 | 0 | 0.0 | 0.0 | 0.13 | 0.46 | 0.43 | 96 | 1005.3 |
| 20260506170035 | 57 | 296 | 0.0 | 0.0 | 0.13 | 0.46 | 0.43 | 96 | 1005.8 |
| 20260506164542 | 56 | 0 | 0.0 | 0.0 | 0.13 | 0.44 | 0.41 | 96 | 1005.4 |
| 20260506164528 | 56 | 297 | 0.0 | 0.0 | 0.13 | 0.44 | 0.41 | 96 | 1005.7 |
| 20260506163041 | 56 | 0 | 0.0 | 0.0 | 0.09 | 0.39 | 0.36 | 96 | 1005.6 |
| 20260506163024 | 56 | 297 | 0.0 | 0.0 | 0.09 | 0.39 | 0.36 | 96 | 1005.9 |
| 20260506161542 | 56 | 0 | 0.0 | 0.0 | 0.07 | 0.36 | 0.33 | 95 | 1005.7 |
| 20260506161524 | 55 | 297 | 0.0 | 0.0 | 0.06 | 0.35 | 0.32 | 95 | 1005.9 |
| 20260506160040 | 55 | 0 | 0.0 | 0.0 | 0.05 | 0.33 | 0.30 | 95 | 1005.6 |
| 20260506160009 | 55 | 297 | 0.0 | 0.0 | 0.05 | 0.33 | 0.30 | 95 | 1005.9 |
| 20260506154540 | 55 | 0 | 0.0 | 0.0 | 0.05 | 0.31 | 0.28 | 95 | 1005.6 |
| 20260506154512 | 55 | 297 | 0.0 | 0.0 | 0.05 | 0.31 | 0.28 | 95 | 1006.0 |
| 20260506153043 | 54 | 0 | 0.0 | 0.0 | 0.06 | 0.30 | 0.27 | 95 | 1005.9 |
| 20260506153011 | 54 | 297 | 0.0 | 0.0 | 0.07 | 0.30 | 0.27 | 95 | 1006.2 |
| 20260506151545 | 54 | 0 | 0.0 | 0.0 | 0.08 | 0.29 | 0.26 | 96 | 1006.2 |
| 20260506151516 | 54 | 297 | 0.0 | 0.0 | 0.08 | 0.29 | 0.26 | 96 | 1006.6 |
| 20260506150044 | 54 | 0 | 0.0 | 2.0 | 0.10 | 0.28 | 0.25 | 96 | 1006.5 |
| 20260506150011 | 54 | 297 | 0.0 | 2.0 | 0.10 | 0.28 | 0.25 | 96 | 1006.7 |
| 20260506144558 | 53 | 297 | 0.0 | 2.0 | 0.10 | 0.26 | 0.23 | 96 | 1006.6 |
| 20260506144511 | 53 | 297 | 0.0 | 2.0 | 0.10 | 0.26 | 0.23 | 96 | 1006.8 |
| 20260506143044 | 53 | 297 | 0.0 | 2.0 | 0.08 | 0.23 | 0.20 | 96 | 1006.9 |
| 20260506143012 | 53 | 297 | 0.0 | 2.0 | 0.08 | 0.23 | 0.20 | 96 | 1007.3 |
| 20260506141542 | 53 | 0 | 0.0 | 2.0 | 0.06 | 0.21 | 0.18 | 96 | 1007.1 |
| 20260506141512 | 53 | 297 | 0.0 | 2.0 | 0.06 | 0.21 | 0.18 | 96 | 1007.4 |
| 20260506140042 | 53 | 0 | 0.0 | 0.0 | 0.04 | 0.18 | 0.15 | 96 | 1007.3 |
| 20260506140018 | 53 | 297 | 0.0 | 0.0 | 0.04 | 0.18 | 0.15 | 96 | 1007.6 |
| 20260506134542 | 53 | 0 | 0.0 | 2.0 | 0.03 | 0.16 | 0.13 | 96 | 1007.4 |
| 20260506134513 | 53 | 297 | 0.0 | 2.0 | 0.03 | 0.16 | 0.13 | 96 | 1007.7 |
| 20260506133053 | 53 | 0 | 0.0 | 0.0 | 0.03 | 0.15 | 0.12 | 96 | 1007.2 |
| 20260506133025 | 53 | 297 | 0.0 | 0.0 | 0.03 | 0.15 | 0.12 | 96 | 1007.4 |
| 20260506131544 | 53 | 0 | 0.0 | 2.0 | 0.05 | 0.15 | 0.12 | 96 | 1007.2 |
| 20260506131517 | 52 | 297 | 0.0 | 2.0 | 0.05 | 0.15 | 0.12 | 96 | 1007.4 |
| 20260506130044 | 52 | 0 | 0.0 | 1.0 | 0.06 | 0.14 | 0.11 | 96 | 1006.9 |
| 20260506130011 | 52 | 297 | 0.0 | 1.0 | 0.06 | 0.14 | 0.11 | 96 | 1007.1 |
| 20260506124542 | 52 | 0 | 0.0 | 2.0 | 0.06 | 0.13 | 0.10 | 96 | 1007.0 |
| 20260506124509 | 52 | 297 | 0.0 | 2.0 | 0.07 | 0.13 | 0.10 | 96 | 1007.3 |
| 20260506123040 | 52 | 296 | 0.0 | 0.0 | 0.07 | 0.12 | 0.09 | 96 | 1007.3 |
| 20260506123012 | 52 | 296 | 0.0 | 0.0 | 0.07 | 0.12 | 0.09 | 96 | 1007.7 |
| 20260506121538 | 52 | 263 | 0.0 | 1.0 | 0.06 | 0.10 | 0.07 | 96 | 1007.5 |
| 20260506121513 | 52 | 263 | 0.0 | 1.0 | 0.06 | 0.10 | 0.07 | 96 | 1007.9 |
| 20260506120051 | 52 | 0 | 0.0 | 0.0 | 0.04 | 0.08 | 0.05 | 95 | 1007.9 |
| 20260506120018 | 52 | 263 | 0.0 | 0.0 | 0.04 | 0.08 | 0.05 | 95 | 1008.3 |
| 20260506114542 | 52 | 0 | 0.0 | 0.0 | 0.03 | 0.07 | 0.04 | 96 | 1007.9 |
| 20260506114509 | 52 | 263 | 0.0 | 0.0 | 0.03 | 0.06 | 0.03 | 96 | 1008.3 |
| 20260506113041 | 52 | 0 | 0.0 | 0.0 | 0.02 | 0.05 | 0.02 | 96 | 1007.8 |
| 20260506113012 | 52 | 263 | 0.0 | 0.0 | 0.02 | 0.05 | 0.02 | 96 | 1008.2 |
| 20260506111538 | 52 | 0 | 0.0 | 1.0 | 0.01 | 0.04 | 0.01 | 96 | 1007.7 |
| 20260506111509 | 52 | 263 | 0.0 | 1.0 | 0.01 | 0.04 | 0.01 | 96 | 1008.1 |
| 20260506110048 | 52 | 0 | 0.0 | 0.0 | 0.01 | 0.04 | 0.01 | 95 | 1007.5 |
| 20260506110012 | 51 | 263 | 0.0 | 0.0 | 0.01 | 0.04 | 0.01 | 95 | 1007.8 |
| 20260506104548 | 51 | 0 | 0.0 | 1.0 | 0.00 | 0.03 | 0.00 | 95 | 1007.5 |
| 20260506104510 | 51 | 263 | 0.0 | 1.0 | 0.00 | 0.03 | 0.00 | 95 | 1007.7 |
| 20260506103049 | 51 | 263 | 0.0 | 2.0 | 0.00 | 0.03 | 0.00 | 96 | 1007.5 |
| 20260506103012 | 51 | 263 | 0.0 | 2.0 | 0.00 | 0.03 | 0.00 | 96 | 1007.8 |
| 20260506101542 | 51 | 0 | 0.0 | 0.0 | 0.00 | 0.03 | 0.00 | 96 | 1007.6 |
| 20260506101512 | 51 | 263 | 0.0 | 0.0 | 0.00 | 0.03 | 0.00 | 96 | 1007.8 |
| 20260506100040 | 51 | 0 | 0.0 | 2.0 | 0.00 | 0.03 | 0.00 | 96 | 1007.3 |
| 20260506100023 | 51 | 263 | 0.0 | 2.0 | 0.00 | 0.03 | 0.00 | 96 | 1007.5 |
| 20260506094544 | 51 | 0 | 0.0 | 2.0 | 0.00 | 0.06 | 0.00 | 95 | 1007.5 |
| 20260506094513 | 51 | 263 | 0.0 | 2.0 | 0.00 | 0.04 | 0.00 | 95 | 1007.7 |
| 20260506093045 | 51 | 0 | 0.0 | 0.0 | 0.00 | 0.06 | 0.00 | 95 | 1007.1 |
| 20260506093014 | 51 | 263 | 0.0 | 0.0 | 0.00 | 0.06 | 0.00 | 95 | 1007.5 |
| 20260506091550 | 51 | 0 | 0.0 | 2.0 | 0.00 | 0.06 | 0.00 | 95 | 1007.1 |
| 20260506091512 | 51 | 263 | 0.0 | 2.0 | 0.00 | 0.06 | 0.00 | 95 | 1007.4 |
| 20260506090041 | 51 | 0 | 0.0 | 0.0 | 0.00 | 0.06 | 0.00 | 95 | 1006.9 |
| 20260506090028 | 51 | 263 | 0.0 | 0.0 | 0.00 | 0.06 | 0.00 | 95 | 1007.3 |
| 20260506084539 | 51 | 0 | 0.0 | 0.0 | 0.00 | 0.06 | 0.00 | 95 | 1007.4 |
| 20260506084534 | 51 | 263 | 0.0 | 0.0 | 0.00 | 0.06 | 0.00 | 95 | 1007.9 |
| 20260506083038 | 51 | 0 | 0.0 | 0.0 | 0.00 | 0.06 | 0.00 | 95 | 1007.5 |
| 20260506083029 | 51 | 263 | 0.0 | 0.0 | 0.00 | 0.06 | 0.00 | 95 | 1008.1 |
| 20260506081544 | 51 | 0 | 0.0 | 0.0 | 0.00 | 0.06 | 0.00 | 95 | 1007.6 |
| 20260506081528 | 51 | 263 | 0.0 | 0.0 | 0.00 | 0.06 | 0.00 | 95 | 1007.9 |
| 20260506073059 | 52 | 263 | 0.0 | 2.0 | 0.00 | 0.06 | 0.00 | 95 | 1008.2 |
| 20260506073026 | 52 | 263 | 0.0 | 2.0 | 0.00 | 0.06 | 0.00 | 95 | 1008.6 |
| 20260506071545 | 52 | 0 | 0.0 | 0.0 | 0.00 | 0.06 | 0.00 | 95 | 1008.0 |
| 20260506071526 | 52 | 263 | 0.0 | 0.0 | 0.00 | 0.06 | 0.00 | 95 | 1008.6 |
| 20260506061548 | 52 | 0 | 0.0 | 0.0 | 0.00 | 0.06 | 0.00 | 94 | 1008.6 |
| 20260506061514 | 52 | 263 | 0.0 | 0.0 | 0.00 | 0.06 | 0.00 | 94 | 1009.1 |
| 20260506044551 | 53 | 0 | 0.0 | 0.0 | 0.01 | 0.06 | 0.00 | 91 | 1009.2 |
| 20260506044516 | 53 | 263 | 0.0 | 0.0 | 0.01 | 0.06 | 0.00 | 91 | 1009.7 |
| 20260506043043 | 54 | 0 | 0.0 | 2.0 | 0.01 | 0.06 | 0.00 | 90 | 1009.2 |
| 20260506043020 | 54 | 263 | 0.0 | 2.0 | 0.01 | 0.06 | 0.00 | 90 | 1009.6 |
| 20260506041554 | 54 | 263 | 0.0 | 2.0 | 0.03 | 0.06 | 0.00 | 89 | 1009.4 |
| 20260506041514 | 54 | 263 | 0.0 | 2.0 | 0.03 | 0.06 | 0.00 | 89 | 1009.7 |
| 20260506040051 | 55 | 0 | 0.0 | 2.0 | 0.03 | 0.06 | 0.00 | 88 | 1009.3 |
| 20260506040027 | 55 | 263 | 0.0 | 2.0 | 0.03 | 0.06 | 0.00 | 88 | 1009.7 |
| 20260506034553 | 56 | 263 | 1.0 | 2.0 | 0.02 | 0.05 | 0.05 | 86 | 1009.7 |
| 20260506034514 | 56 | 263 | 0.0 | 2.0 | 0.02 | 0.05 | 0.05 | 86 | 1010.3 |
| 20260506033038 | 57 | 360 | 1.0 | 4.0 | 0.02 | 0.05 | 0.05 | 78 | 1009.4 |
| 20260506033014 | 57 | 46 | 1.0 | 4.0 | 0.02 | 0.05 | 0.05 | 78 | 1009.8 |
| 20260506031541 | 58 | 63 | 1.0 | 5.0 | 0.00 | 0.03 | 0.03 | 74 | 1009.6 |
| 20260506031514 | 58 | 63 | 1.0 | 5.0 | 0.00 | 0.03 | 0.03 | 74 | 1010.0 |
| 20260506030058 | 59 | 344 | 1.0 | 5.0 | 0.00 | 0.03 | 0.03 | 75 | 1009.4 |
| 20260506030013 | 59 | 345 | 0.0 | 5.0 | 0.00 | 0.03 | 0.03 | 75 | 1009.8 |
| 20260506024545 | 59 | 0 | 1.0 | 5.0 | 0.00 | 0.03 | 0.03 | 74 | 1009.2 |
| 20260506024514 | 59 | 16 | 1.0 | 5.0 | 0.00 | 0.03 | 0.03 | 74 | 1009.6 |
| 20260506023039 | 61 | 36 | 1.0 | 5.0 | 0.00 | 0.03 | 0.03 | 76 | 1009.1 |
| 20260506023016 | 61 | 36 | 0.0 | 5.0 | 0.00 | 0.03 | 0.03 | 76 | 1009.5 |
| 20260506021555 | 61 | 39 | 1.0 | 3.0 | 0.00 | 0.03 | 0.03 | 81 | 1008.4 |
| 20260506021528 | 62 | 9 | 1.0 | 3.0 | 0.00 | 0.03 | 0.03 | 81 | 1009.0 |
| 20260506020044 | 62 | 206 | 0.0 | 2.0 | 0.00 | 0.03 | 0.03 | 80 | 1008.3 |
| 20260506020016 | 62 | 206 | 0.0 | 2.0 | 0.00 | 0.03 | 0.03 | 80 | 1008.9 |
| 20260506014550 | 62 | 0 | 0.0 | 2.0 | 0.00 | 0.03 | 0.03 | 81 | 1007.9 |
| 20260506014516 | 62 | 285 | 0.0 | 2.0 | 0.00 | 0.03 | 0.03 | 81 | 1008.6 |
| 20260506013045 | 62 | 120 | 1.0 | 2.0 | 0.00 | 0.03 | 0.03 | 80 | 1007.6 |
| 20260506013014 | 62 | 120 | 1.0 | 2.0 | 0.00 | 0.03 | 0.03 | 80 | 1008.3 |
| 20260506011609 | 62 | 0 | 0.0 | 2.0 | 0.00 | 0.03 | 0.03 | 80 | 1007.2 |
| 20260506011515 | 62 | 136 | 0.0 | 2.0 | 0.00 | 0.03 | 0.03 | 80 | 1007.9 |
| 20260506010044 | 63 | 242 | 0.0 | 2.0 | 0.00 | 0.03 | 0.03 | 78 | 1007.2 |
| 20260506010030 | 63 | 242 | 0.0 | 2.0 | 0.00 | 0.03 | 0.03 | 78 | 1007.9 |
| 20260506004550 | 63 | 84 | 0.0 | 3.0 | 0.00 | 0.03 | 0.03 | 78 | 1007.3 |
| 20260506004515 | 63 | 84 | 0.0 | 2.0 | 0.00 | 0.03 | 0.03 | 78 | 1007.9 |
| 20260506003042 | 64 | 207 | 1.0 | 2.0 | 0.00 | 0.03 | 0.03 | 75 | 1006.8 |
| 20260506003026 | 64 | 207 | 1.0 | 2.0 | 0.00 | 0.03 | 0.03 | 75 | 1007.6 |
| 20260506001546 | 64 | 319 | 1.0 | 4.0 | 0.00 | 0.03 | 0.03 | 73 | 1006.8 |
| 20260506001528 | 65 | 140 | 1.0 | 4.0 | 0.00 | 0.03 | 0.03 | 73 | 1007.5 |
| 20260506000046 | 65 | 130 | 2.0 | 8.0 | 0.00 | 0.03 | 0.03 | 71 | 1007.0 |
| 20260506000027 | 65 | 138 | 2.0 | 8.0 | 0.00 | 0.03 | 0.03 | 71 | 1007.4 |
| 20260505234547 | 64 | 220 | 0.0 | 4.0 | 0.00 | 0.03 | 0.03 | 72 | 1006.5 |
| 20260505234536 | 64 | 130 | 0.0 | 4.0 | 0.00 | 0.03 | 0.03 | 72 | 1007.0 |
| 20260505233041 | 64 | 137 | 1.0 | 3.0 | 0.00 | 0.03 | 0.03 | 72 | 1006.2 |
| 20260505233034 | 64 | 136 | 1.0 | 3.0 | 0.00 | 0.03 | 0.03 | 72 | 1006.9 |
| 20260505231543 | 66 | 173 | 1.0 | 3.0 | 0.00 | 0.03 | 0.03 | 69 | 1006.1 |
| 20260505231531 | 66 | 173 | 1.0 | 3.0 | 0.00 | 0.03 | 0.03 | 69 | 1006.8 |
| 20260505230057 | 67 | 269 | 1.0 | 7.0 | 0.00 | 0.03 | 0.03 | 67 | 1005.9 |
| 20260505230028 | 67 | 142 | 1.0 | 5.0 | 0.00 | 0.03 | 0.03 | 67 | 1006.5 |
| 20260505224549 | 67 | 86 | 2.0 | 9.0 | 0.00 | 0.03 | 0.03 | 66 | 1005.8 |
| 20260505224530 | 67 | 159 | 2.0 | 9.0 | 0.00 | 0.03 | 0.03 | 66 | 1006.2 |
| 20260505223044 | 66 | 163 | 2.0 | 5.0 | 0.00 | 0.03 | 0.03 | 70 | 1005.8 |
| 20260505223025 | 66 | 169 | 2.0 | 5.0 | 0.00 | 0.03 | 0.03 | 70 | 1006.3 |
| 20260505221546 | 65 | 117 | 1.0 | 15.0 | 0.00 | 0.03 | 0.03 | 70 | 1006.0 |
| 20260505221528 | 65 | 118 | 2.0 | 15.0 | 0.00 | 0.03 | 0.03 | 70 | 1006.8 |
| 20260505220053 | 66 | 308 | 4.0 | 16.0 | 0.00 | 0.03 | 0.03 | 68 | 1005.9 |
| 20260505220015 | 66 | 360 | 5.0 | 16.0 | 0.00 | 0.03 | 0.03 | 68 | 1006.6 |
| 20260505214551 | 67 | 199 | 5.0 | 15.0 | 0.00 | 0.03 | 0.03 | 67 | 1006.6 |
| 20260505214525 | 67 | 217 | 6.0 | 15.0 | 0.00 | 0.03 | 0.03 | 67 | 1007.0 |
| 20260505213047 | 67 | 242 | 7.0 | 20.0 | 0.00 | 0.03 | 0.03 | 67 | 1006.5 |
| 20260505213017 | 67 | 271 | 7.0 | 20.0 | 0.00 | 0.03 | 0.03 | 67 | 1007.1 |
| 20260505211542 | 70 | 346 | 5.0 | 14.0 | 0.00 | 0.03 | 0.03 | 59 | 1005.7 |
| 20260505211516 | 70 | 274 | 6.0 | 14.0 | 0.00 | 0.03 | 0.03 | 59 | 1005.9 |
| 20260505210048 | 79 | 225 | 2.0 | 12.0 | 0.00 | 0.03 | 0.03 | 30 | 1004.6 |
| 20260505210019 | 79 | 311 | 1.0 | 12.0 | 0.00 | 0.03 | 0.03 | 30 | 1005.0 |
| 20260505204556 | 79 | 124 | 2.0 | 8.0 | 0.00 | 0.03 | 0.03 | 30 | 1003.6 |
| 20260505204516 | 79 | 252 | 2.0 | 7.0 | 0.00 | 0.03 | 0.03 | 30 | 1004.0 |
| 20260505203048 | 80 | 143 | 3.0 | 9.0 | 0.00 | 0.03 | 0.03 | 29 | 1003.3 |
| 20260505203026 | 80 | 144 | 4.0 | 9.0 | 0.00 | 0.03 | 0.03 | 29 | 1003.7 |
| 20260505201547 | 81 | 175 | 3.0 | 11.0 | 0.00 | 0.03 | 0.03 | 29 | 1003.4 |
| 20260505201524 | 81 | 129 | 3.0 | 11.0 | 0.00 | 0.03 | 0.03 | 29 | 1003.8 |
| 20260505200049 | 81 | 121 | 5.0 | 14.0 | 0.00 | 0.03 | 0.03 | 29 | 1002.8 |
| 20260505200017 | 81 | 360 | 4.0 | 14.0 | 0.00 | 0.03 | 0.03 | 29 | 1003.3 |
| 20260505194556 | 80 | 263 | 3.0 | 11.0 | 0.00 | 0.03 | 0.03 | 31 | 1003.0 |
| 20260505194516 | 80 | 132 | 3.0 | 11.0 | 0.00 | 0.03 | 0.03 | 31 | 1003.5 |
| 20260505193048 | 79 | 107 | 3.0 | 13.0 | 0.00 | 0.03 | 0.03 | 33 | 1003.4 |
| 20260505193017 | 79 | 99 | 3.0 | 13.0 | 0.00 | 0.03 | 0.03 | 33 | 1003.8 |
| 20260505191548 | 80 | 5 | 4.0 | 13.0 | 0.00 | 0.03 | 0.03 | 31 | 1003.5 |
| 20260505191520 | 80 | 124 | 5.0 | 13.0 | 0.00 | 0.03 | 0.03 | 31 | 1004.0 |
| 20260505190045 | 80 | 99 | 5.0 | 17.0 | 0.00 | 0.03 | 0.03 | 32 | 1003.7 |
| 20260505190015 | 80 | 186 | 6.0 | 17.0 | 0.00 | 0.03 | 0.03 | 32 | 1004.1 |
| 20260505184552 | 81 | 126 | 4.0 | 19.0 | 0.00 | 0.03 | 0.03 | 33 | 1003.7 |
| 20260505184518 | 81 | 230 | 4.0 | 19.0 | 0.00 | 0.03 | 0.03 | 33 | 1004.4 |
| 20260505183053 | 80 | 117 | 4.0 | 16.0 | 0.00 | 0.03 | 0.03 | 33 | 1003.7 |
| 20260505183020 | 80 | 138 | 5.0 | 16.0 | 0.00 | 0.03 | 0.03 | 33 | 1004.3 |